QPF
0.06 0.10 0.10 0.07 0.06 0.05 0.06 0.07 0.07 0.06 0.03 0.02 0.01 0.01 0.01 0.01 0.01 0.01 0.02 0.01 0.01 0.00 0.00 0.00 0.00 0.00 0.00 0.00 0.00 0.00 0.00 0.00 0.00 0.00 0.00 0.00 0.01 0.01 0.01 0.01 0.00 0.00 0.01 0.02
0.06 0.06 0.03 0.05 0.05 0.06 0.07 0.07 0.06 0.06 0.04 0.02 0.00 0.01 0.02 0.01 0.00 0.01 0.01 0.01 0.02 0.01 0.00 0.00 0.00 0.00 0.00 0.00 0.00 0.00 0.00 0.00 0.00 0.00 0.00 0.00 0.00 0.00 0.01 0.01 0.01 0.01 0.01 0.01
0.02 0.02 0.03 0.05 0.07 0.06 0.05 0.06 0.06 0.06 0.04 0.01 0.01 0.01 0.00 0.00 0.00 0.00 0.00 0.01 0.03 0.01 0.01 0.01 0.00 0.00 0.00 0.00 0.00 0.00 0.00 0.00 0.00 0.00 0.00 0.00 0.00 0.00 0.01 0.02 0.02 0.01 0.01 0.02
0.06 0.04 0.05 0.05 0.05 0.05 0.05 0.04 0.04 0.05 0.05 0.03 0.01 0.01 0.01 0.00 0.00 0.00 0.00 0.00 0.01 0.00 0.00 0.00 0.00 0.00 0.00 0.00 0.00 0.00 0.00 0.00 0.00 0.00 0.00 0.00 0.00 0.00 0.01 0.02 0.01 0.01 0.01 0.02
0.11 0.04 0.04 0.03 0.03 0.03 0.04 0.03 0.01 0.01 0.03 0.04 0.01 0.01 0.01 0.00 0.00 0.00 0.00 0.00 0.00 0.00 0.00 0.00 0.00 0.00 0.00 0.00 0.00 0.00 0.00 0.00 0.00 0.00 0.00 0.00 0.00 0.00 0.01 0.01 0.01 0.02 0.02 0.02
0.06 0.02 0.02 0.02 0.02 0.02 0.01 0.01 0.01 0.01 0.01 0.03 0.01 0.01 0.03 0.01 0.00 0.00 0.00 0.00 0.00 0.00 0.00 0.00 0.00 0.00 0.00 0.00 0.00 0.00 0.00 0.00 0.00 0.00 0.00 0.00 0.01 0.01 0.00 0.00 0.01 0.02 0.03 0.03
0.01 0.01 0.00 0.01 0.01 0.00 0.00 0.02 0.04 0.04 0.03 0.02 0.01 0.01 0.02 0.01 0.00 0.00 0.00 0.00 0.00 0.00 0.00 0.00 0.00 0.00 0.00 0.00 0.00 0.00 0.00 0.00 0.00 0.00 0.00 0.00 0.00 0.00 0.00 0.00 0.01 0.02 0.03 0.03
0.01 0.01 0.00 0.00 0.00 0.00 0.00 0.02 0.05 0.06 0.04 0.02 0.01 0.00 0.00 0.00 0.00 0.00 0.00 0.00 0.00 0.00 0.00 0.00 0.00 0.00 0.00 0.00 0.00 0.00 0.00 0.00 0.00 0.00 0.00 0.00 0.00 0.00 0.01 0.01 0.02 0.02 0.02 0.02
0.01 0.01 0.00 0.00 0.00 0.00 0.00 0.01 0.01 0.01 0.01 0.02 0.01 0.00 0.00 0.00 0.00 0.00 0.00 0.00 0.00 0.00 0.00 0.00 0.00 0.00 0.00 0.00 0.00 0.00 0.00 0.00 0.00 0.00 0.00 0.00 0.00 0.01 0.01 0.01 0.02 0.02 0.02 0.01
0.00 0.00 0.00 0.00 0.00 0.00 0.00 0.00 0.00 0.00 0.01 0.01 0.00 0.00 0.00 0.00 0.00 0.00 0.00 0.00 0.00 0.00 0.00 0.00 0.00 0.00 0.00 0.00 0.00 0.00 0.00 0.00 0.00 0.00 0.00 0.00 0.00 0.01 0.01 0.01 0.01 0.01 0.02 0.03
0.00 0.01 0.01 0.00 0.00 0.00 0.00 0.00 0.00 0.00 0.00 0.01 0.00 0.00 0.00 0.00 0.00 0.00 0.00 0.00 0.00 0.00 0.00 0.00 0.00 0.00 0.00 0.00 0.00 0.00 0.00 0.00 0.00 0.00 0.00 0.00 0.00 0.01 0.00 0.01 0.02 0.01 0.01 0.02
0.00 0.01 0.01 0.00 0.00 0.00 0.00 0.00 0.00 0.01 0.01 0.00 0.00 0.00 0.00 0.00 0.00 0.00 0.00 0.00 0.00 0.00 0.00 0.00 0.00 0.00 0.00 0.00 0.00 0.00 0.00 0.00 0.00 0.00 0.00 0.00 0.00 0.00 0.00 0.01 0.03 0.01 0.01 0.02
0.00 0.00 0.01 0.01 0.00 0.00 0.00 0.00 0.00 0.00 0.00 0.00 0.00 0.00 0.00 0.00 0.00 0.00 0.00 0.00 0.00 0.00 0.00 0.00 0.00 0.00 0.00 0.00 0.00 0.00 0.00 0.00 0.00 0.00 0.00 0.00 0.00 0.00 0.00 0.01 0.03 0.02 0.01 0.01
0.00 0.00 0.01 0.02 0.01 0.00 0.00 0.00 0.00 0.00 0.00 0.00 0.00 0.00 0.00 0.00 0.00 0.00 0.00 0.00 0.00 0.00 0.00 0.00 0.00 0.00 0.00 0.00 0.00 0.00 0.00 0.00 0.00 0.00 0.00 0.00 0.00 0.00 0.00 0.01 0.03 0.03 0.01 0.01
0.00 0.00 0.00 0.00 0.00 0.00 0.00 0.00 0.00 0.00 0.00 0.00 0.00 0.00 0.00 0.00 0.00 0.00 0.00 0.00 0.00 0.00 0.00 0.00 0.00 0.00 0.00 0.00 0.00 0.00 0.00 0.00 0.00 0.00 0.00 0.00 0.00 0.00 0.00 0.01 0.02 0.02 0.02 0.01
0.00 0.00 0.00 0.00 0.00 0.00 0.00 0.00 0.00 0.00 0.00 0.00 0.00 0.00 0.00 0.00 0.00 0.00 0.00 0.00 0.00 0.00 0.00 0.00 0.00 0.00 0.00 0.00 0.00 0.00 0.00 0.00 0.00 0.00 0.00 0.00 0.00 0.00 0.00 0.00 0.01 0.01 0.02 0.02
0.00 0.00 0.00 0.00 0.00 0.00 0.00 0.00 0.00 0.00 0.00 0.00 0.00 0.00 0.00 0.00 0.00 0.00 0.00 0.00 0.00 0.00 0.00 0.00 0.00 0.00 0.00 0.00 0.00 0.00 0.00 0.00 0.00 0.00 0.00 0.00 0.00 0.00 0.00 0.00 0.01 0.01 0.01 0.01
0.00 0.00 0.00 0.00 0.00 0.00 0.00 0.00 0.00 0.00 0.00 0.00 0.00 0.00 0.00 0.00 0.00 0.00 0.00 0.00 0.00 0.00 0.00 0.00 0.00 0.00 0.00 0.00 0.00 0.00 0.00 0.00 0.00 0.00 0.00 0.00 0.00 0.00 0.00 0.00 0.00 0.01 0.01 0.01
0.00 0.00 0.00 0.00 0.00 0.00 0.00 0.00 0.00 0.00 0.00 0.00 0.00 0.00 0.00 0.00 0.00 0.00 0.00 0.00 0.00 0.00 0.00 0.00 0.00 0.00 0.00 0.00 0.00 0.00 0.00 0.00 0.00 0.00 0.00 0.00 0.00 0.00 0.00 0.00 0.00 0.00 0.00 0.00
0.00 0.00 0.00 0.00 0.00 0.00 0.00 0.00 0.00 0.00 0.00 0.00 0.00 0.00 0.00 0.00 0.00 0.00 0.00 0.00 0.00 0.00 0.00 0.00 0.00 0.00 0.00 0.00 0.00 0.00 0.00 0.00 0.00 0.00 0.00 0.00 0.00 0.00 0.00 0.00 0.00 0.00 0.00 0.00
0.00 0.00 0.00 0.00 0.00 0.00 0.00 0.00 0.00 0.00 0.00 0.00 0.00 0.00 0.00 0.00 0.00 0.00 0.00 0.00 0.00 0.00 0.00 0.00 0.00 0.00 0.00 0.00 0.00 0.00 0.00 0.00 0.00 0.00 0.00 0.00 0.00 0.00 0.00 0.00 0.00 0.00 0.00 0.00
0.00 0.00 0.00 0.00 0.00 0.00 0.00 0.00 0.00 0.00 0.00 0.00 0.00 0.00 0.00 0.00 0.00 0.00 0.00 0.00 0.00 0.00 0.00 0.00 0.00 0.00 0.00 0.00 0.00 0.00 0.00 0.00 0.00 0.00 0.00 0.00 0.00 0.00 0.00 0.00 0.00 0.00 0.00 0.00
0.00 0.00 0.00 0.00 0.00 0.00 0.00 0.00 0.00 0.00 0.00 0.00 0.00 0.00 0.00 0.00 0.00 0.00 0.00 0.00 0.00 0.00 0.00 0.00 0.00 0.00 0.00 0.00 0.00 0.00 0.00 0.00 0.00 0.00 0.00 0.00 0.00 0.00 0.00 0.00 0.00 0.00 0.00 0.00
0.00 0.00 0.00 0.00 0.00 0.00 0.00 0.00 0.00 0.00 0.00 0.00 0.00 0.00 0.00 0.00 0.00 0.00 0.00 0.00 0.00 0.00 0.00 0.00 0.00 0.00 0.00 0.00 0.00 0.00 0.00 0.00 0.00 0.00 0.00 0.00 0.00 0.00 0.00 0.00 0.00 0.00 0.00 0.00
0.00 0.00 0.00 0.00 0.00 0.00 0.00 0.00 0.00 0.00 0.00 0.00 0.00 0.00 0.00 0.00 0.00 0.00 0.00 0.00 0.00 0.00 0.00 0.00 0.00 0.00 0.00 0.00 0.00 0.00 0.00 0.00 0.00 0.00 0.00 0.00 0.00 0.00 0.00 0.00 0.00 0.00 0.00 0.00
0.00 0.00 0.00 0.00 0.00 0.00 0.00 0.00 0.00 0.00 0.00 0.00 0.00 0.00 0.00 0.00 0.00 0.00 0.00 0.00 0.00 0.00 0.00 0.00 0.00 0.00 0.00 0.00 0.00 0.00 0.00 0.00 0.00 0.00 0.00 0.00 0.00 0.00 0.00 0.00 0.00 0.00 0.00 0.00
MSLP
1008.08 1008.87 1009.49 1009.93 1010.21 1010.37 1010.46 1010.52 1010.56 1010.58 1010.53 1010.40 1010.15 1009.78 1009.31 1008.78 1008.26 1007.82 1007.52 1007.40 1007.46 1007.70 1008.06 1008.50 1008.95 1009.36 1009.73 1010.03 1010.29 1010.51 1010.74 1010.96 1011.19 1011.41 1011.59 1011.72 1011.78 1011.77 1011.70 1011.58 1011.46 1011.36 1011.28 1011.24
1008.69 1009.34 1009.80 1010.09 1010.25 1010.33 1010.39 1010.46 1010.54 1010.59 1010.59 1010.49 1010.24 1009.84 1009.32 1008.73 1008.14 1007.65 1007.32 1007.18 1007.26 1007.52 1007.92 1008.39 1008.87 1009.32 1009.70 1010.01 1010.28 1010.53 1010.78 1011.04 1011.31 1011.57 1011.79 1011.95 1012.01 1011.99 1011.89 1011.75 1011.59 1011.46 1011.38 1011.34
1009.15 1009.63 1009.92 1010.06 1010.11 1010.14 1010.19 1010.29 1010.42 1010.54 1010.60 1010.53 1010.29 1009.87 1009.30 1008.65 1008.01 1007.47 1007.10 1006.96 1007.04 1007.33 1007.77 1008.28 1008.79 1009.26 1009.66 1009.98 1010.27 1010.53 1010.80 1011.09 1011.40 1011.70 1011.96 1012.15 1012.24 1012.22 1012.11 1011.95 1011.77 1011.62 1011.52 1011.48
1009.39 1009.69 1009.82 1009.85 1009.83 1009.85 1009.93 1010.10 1010.32 1010.53 1010.66 1010.63 1010.39 1009.95 1009.33 1008.62 1007.90 1007.30 1006.89 1006.73 1006.82 1007.13 1007.60 1008.15 1008.70 1009.20 1009.61 1009.95 1010.24 1010.51 1010.79 1011.10 1011.44 1011.77 1012.07 1012.29 1012.41 1012.41 1012.32 1012.15 1011.97 1011.80 1011.69 1011.65
1009.41 1009.55 1009.56 1009.52 1009.49 1009.55 1009.71 1009.99 1010.33 1010.65 1010.85 1010.87 1010.64 1010.16 1009.48 1008.67 1007.88 1007.19 1006.73 1006.53 1006.61 1006.93 1007.43 1008.01 1008.60 1009.13 1009.56 1009.91 1010.20 1010.47 1010.74 1011.05 1011.40 1011.75 1012.08 1012.33 1012.49 1012.53 1012.47 1012.33 1012.15 1011.99 1011.87 1011.81
1009.24 1009.26 1009.21 1009.15 1009.16 1009.31 1009.60 1010.02 1010.50 1010.93 1011.22 1011.28 1011.04 1010.52 1009.75 1008.85 1007.95 1007.17 1006.62 1006.36 1006.42 1006.74 1007.26 1007.87 1008.50 1009.06 1009.52 1009.88 1010.16 1010.41 1010.67 1010.96 1011.29 1011.64 1011.98 1012.26 1012.46 1012.55 1012.53 1012.42 1012.28 1012.13 1012.02 1011.95
1008.99 1008.94 1008.86 1008.83 1008.92 1009.18 1009.62 1010.19 1010.81 1011.36 1011.73 1011.82 1011.57 1010.99 1010.14 1009.13 1008.11 1007.22 1006.58 1006.25 1006.26 1006.57 1007.09 1007.74 1008.39 1008.99 1009.47 1009.84 1010.12 1010.34 1010.56 1010.81 1011.11 1011.44 1011.77 1012.07 1012.30 1012.43 1012.47 1012.42 1012.31 1012.20 1012.09 1012.03
1008.76 1008.67 1008.60 1008.62 1008.81 1009.19 1009.76 1010.47 1011.21 1011.85 1012.27 1012.38 1012.11 1011.47 1010.54 1009.44 1008.31 1007.31 1006.58 1006.18 1006.13 1006.41 1006.93 1007.59 1008.27 1008.90 1009.40 1009.78 1010.06 1010.26 1010.44 1010.64 1010.89 1011.18 1011.49 1011.79 1012.04 1012.21 1012.29 1012.30 1012.25 1012.17 1012.09 1012.04
1008.63 1008.54 1008.49 1008.57 1008.83 1009.30 1009.97 1010.76 1011.57 1012.27 1012.72 1012.82 1012.53 1011.86 1010.86 1009.68 1008.48 1007.40 1006.58 1006.11 1006.01 1006.25 1006.76 1007.42 1008.11 1008.76 1009.29 1009.69 1009.96 1010.14 1010.29 1010.45 1010.65 1010.89 1011.17 1011.45 1011.70 1011.90 1012.03 1012.09 1012.09 1012.06 1012.02 1011.99
1008.66 1008.58 1008.55 1008.67 1008.97 1009.47 1010.17 1010.98 1011.80 1012.49 1012.93 1013.02 1012.71 1012.01 1010.99 1009.78 1008.54 1007.42 1006.55 1006.03 1005.87 1006.07 1006.54 1007.19 1007.88 1008.54 1009.09 1009.51 1009.79 1009.98 1010.11 1010.24 1010.39 1010.60 1010.84 1011.09 1011.34 1011.56 1011.72 1011.82 1011.87 1011.89 1011.89 1011.90
1008.84 1008.78 1008.77 1008.88 1009.17 1009.64 1010.28 1011.03 1011.78 1012.41 1012.80 1012.86 1012.54 1011.85 1010.85 1009.67 1008.44 1007.32 1006.45 1005.89 1005.70 1005.84 1006.27 1006.87 1007.55 1008.20 1008.76 1009.20 1009.51 1009.72 1009.86 1009.99 1010.13 1010.31 1010.52 1010.76 1011.00 1011.22 1011.41 1011.54 1011.64 1011.70 1011.75 1011.79
1009.13 1009.08 1009.07 1009.15 1009.37 1009.74 1010.26 1010.88 1011.50 1012.01 1012.32 1012.34 1012.02 1011.37 1010.44 1009.33 1008.18 1007.12 1006.27 1005.71 1005.47 1005.56 1005.92 1006.46 1007.09 1007.71 1008.28 1008.74 1009.08 1009.34 1009.52 1009.68 1009.84 1010.02 1010.24 1010.47 1010.70 1010.93 1011.13 1011.29 1011.42 1011.53 1011.62 1011.71
1009.43 1009.41 1009.38 1009.40 1009.52 1009.75 1010.10 1010.53 1010.97 1011.34 1011.54 1011.51 1011.21 1010.62 1009.80 1008.82 1007.79 1006.83 1006.04 1005.49 1005.22 1005.24 1005.51 1005.96 1006.51 1007.08 1007.63 1008.10 1008.49 1008.80 1009.06 1009.28 1009.50 1009.72 1009.96 1010.20 1010.45 1010.68 1010.89 1011.07 1011.23 1011.38 1011.51 1011.65
1009.69 1009.68 1009.64 1009.60 1009.60 1009.67 1009.83 1010.05 1010.29 1010.49 1010.58 1010.51 1010.23 1009.73 1009.05 1008.23 1007.35 1006.52 1005.81 1005.28 1004.98 1004.92 1005.07 1005.40 1005.84 1006.33 1006.83 1007.30 1007.73 1008.11 1008.45 1008.77 1009.07 1009.36 1009.65 1009.94 1010.21 1010.46 1010.69 1010.89 1011.08 1011.25 1011.43 1011.60
1009.85 1009.87 1009.81 1009.72 1009.61 1009.53 1009.50 1009.51 1009.56 1009.60 1009.58 1009.47 1009.23 1008.83 1008.30 1007.65 1006.95 1006.26 1005.63 1005.13 1004.79 1004.63 1004.65 1004.83 1005.12 1005.50 1005.93 1006.38 1006.83 1007.28 1007.71 1008.13 1008.54 1008.93 1009.30 1009.64 1009.95 1010.23 1010.48 1010.71 1010.92 1011.12 1011.33 1011.54
1009.91 1009.96 1009.90 1009.77 1009.59 1009.38 1009.19 1009.03 1008.90 1008.80 1008.69 1008.55 1008.35 1008.06 1007.67 1007.20 1006.66 1006.10 1005.56 1005.08 1004.69 1004.43 1004.29 1004.30 1004.42 1004.66 1004.99 1005.39 1005.85 1006.34 1006.86 1007.38 1007.90 1008.40 1008.86 1009.28 1009.65 1009.97 1010.25 1010.50 1010.73 1010.95 1011.19 1011.42
1009.91 1009.98 1009.94 1009.79 1009.55 1009.26 1008.95 1008.66 1008.40 1008.19 1008.01 1007.85 1007.69 1007.49 1007.24 1006.92 1006.53 1006.10 1005.63 1005.15 1004.71 1004.33 1004.04 1003.86 1003.81 1003.88 1004.09 1004.41 1004.84 1005.36 1005.94 1006.56 1007.18 1007.77 1008.33 1008.83 1009.26 1009.63 1009.94 1010.22 1010.47 1010.71 1010.96 1011.22
1009.92 1010.00 1009.97 1009.81 1009.55 1009.21 1008.83 1008.45 1008.11 1007.82 1007.60 1007.43 1007.30 1007.18 1007.04 1006.85 1006.58 1006.24 1005.82 1005.35 1004.85 1004.36 1003.92 1003.56 1003.33 1003.23 1003.30 1003.53 1003.90 1004.41 1005.02 1005.70 1006.39 1007.07 1007.71 1008.28 1008.78 1009.20 1009.55 1009.85 1010.12 1010.38 1010.64 1010.90
1009.99 1010.06 1010.02 1009.86 1009.59 1009.23 1008.82 1008.39 1008.01 1007.68 1007.44 1007.27 1007.17 1007.11 1007.05 1006.94 1006.77 1006.50 1006.12 1005.65 1005.10 1004.51 1003.94 1003.42 1003.02 1002.76 1002.68 1002.79 1003.09 1003.55 1004.16 1004.85 1005.59 1006.32 1007.02 1007.65 1008.20 1008.67 1009.06 1009.39 1009.68 1009.95 1010.21 1010.48
1010.17 1010.18 1010.10 1009.93 1009.65 1009.29 1008.87 1008.45 1008.05 1007.71 1007.46 1007.31 1007.23 1007.20 1007.19 1007.15 1007.04 1006.81 1006.46 1005.99 1005.40 1004.75 1004.07 1003.43 1002.88 1002.48 1002.26 1002.24 1002.44 1002.83 1003.38 1004.06 1004.79 1005.55 1006.28 1006.95 1007.54 1008.05 1008.48 1008.84 1009.16 1009.44 1009.72 1009.98
1010.42 1010.34 1010.21 1010.00 1009.71 1009.35 1008.95 1008.54 1008.15 1007.83 1007.60 1007.45 1007.39 1007.39 1007.41 1007.40 1007.32 1007.13 1006.80 1006.33 1005.73 1005.03 1004.28 1003.55 1002.89 1002.37 1002.02 1001.88 1001.96 1002.25 1002.72 1003.33 1004.02 1004.76 1005.49 1006.18 1006.80 1007.35 1007.82 1008.23 1008.58 1008.89 1009.18 1009.46
1010.70 1010.50 1010.28 1010.02 1009.71 1009.36 1008.99 1008.61 1008.27 1007.98 1007.77 1007.64 1007.59 1007.60 1007.63 1007.64 1007.57 1007.40 1007.09 1006.62 1006.03 1005.31 1004.54 1003.75 1003.02 1002.40 1001.94 1001.68 1001.63 1001.79 1002.15 1002.66 1003.28 1003.96 1004.67 1005.36 1006.00 1006.59 1007.11 1007.57 1007.97 1008.33 1008.65 1008.95
1010.92 1010.59 1010.28 1009.96 1009.63 1009.30 1008.96 1008.64 1008.35 1008.11 1007.94 1007.83 1007.79 1007.80 1007.83 1007.82 1007.76 1007.59 1007.29 1006.85 1006.27 1005.57 1004.79 1003.98 1003.21 1002.52 1001.97 1001.59 1001.41 1001.43 1001.65 1002.03 1002.54 1003.15 1003.80 1004.47 1005.14 1005.76 1006.34 1006.87 1007.34 1007.77 1008.15 1008.48
1011.00 1010.56 1010.16 1009.80 1009.47 1009.16 1008.88 1008.62 1008.40 1008.22 1008.09 1008.01 1007.98 1007.98 1007.98 1007.96 1007.89 1007.71 1007.42 1007.00 1006.45 1005.77 1005.02 1004.21 1003.42 1002.68 1002.05 1001.56 1001.25 1001.12 1001.18 1001.42 1001.80 1002.30 1002.89 1003.54 1004.21 1004.88 1005.53 1006.14 1006.71 1007.23 1007.69 1008.09
1010.91 1010.38 1009.93 1009.56 1009.25 1009.00 1008.78 1008.61 1008.46 1008.34 1008.26 1008.20 1008.17 1008.15 1008.13 1008.08 1007.97 1007.78 1007.49 1007.08 1006.56 1005.92 1005.19 1004.41 1003.61 1002.84 1002.14 1001.55 1001.11 1000.83 1000.73 1000.80 1001.04 1001.43 1001.94 1002.55 1003.22 1003.94 1004.67 1005.38 1006.06 1006.69 1007.25 1007.74
1010.64 1010.09 1009.65 1009.30 1009.05 1008.87 1008.74 1008.65 1008.59 1008.53 1008.49 1008.45 1008.40 1008.35 1008.29 1008.18 1008.03 1007.82 1007.51 1007.11 1006.61 1006.01 1005.31 1004.56 1003.76 1002.97 1002.21 1001.53 1000.96 1000.53 1000.27 1000.19 1000.28 1000.54 1000.96 1001.52 1002.20 1002.95 1003.76 1004.58 1005.38 1006.13 1006.82 1007.42
Thickness
5733 5725 5721 5731 5739 5740 5740 5738 5736 5747 5764 5761 5759 5761 5768 5776 5774 5773 5773 5775 5775 5776 5779 5777 5773 5768 5764 5760 5755 5750 5746 5742 5737 5730 5725 5719 5715 5713 5710 5706 5702 5698 5695 5692
5722 5721 5737 5745 5747 5742 5736 5733 5738 5747 5763 5761 5761 5764 5774 5779 5777 5777 5776 5777 5778 5777 5775 5771 5769 5765 5761 5757 5753 5749 5745 5741 5736 5729 5725 5720 5715 5712 5709 5705 5701 5697 5693 5690
5723 5732 5745 5743 5738 5735 5734 5735 5737 5738 5751 5766 5762 5756 5767 5779 5783 5782 5781 5781 5780 5776 5772 5768 5766 5763 5759 5755 5751 5749 5744 5740 5735 5730 5725 5720 5715 5710 5706 5702 5698 5696 5692 5689
5721 5738 5744 5738 5736 5738 5730 5746 5748 5747 5742 5744 5756 5736 5758 5771 5772 5775 5776 5777 5777 5777 5774 5770 5766 5762 5758 5755 5752 5748 5744 5739 5734 5729 5722 5716 5709 5704 5703 5700 5697 5695 5692 5688
5719 5734 5737 5735 5740 5744 5742 5755 5755 5752 5744 5740 5753 5744 5752 5768 5763 5768 5774 5777 5778 5777 5775 5770 5766 5762 5759 5756 5751 5747 5742 5737 5733 5728 5722 5716 5710 5707 5704 5701 5697 5693 5691 5688
5734 5747 5747 5747 5754 5757 5758 5756 5755 5754 5745 5727 5747 5743 5743 5761 5765 5769 5775 5778 5778 5777 5774 5770 5767 5762 5758 5753 5749 5745 5739 5735 5731 5727 5722 5717 5711 5707 5703 5699 5695 5692 5690 5687
5729 5742 5755 5760 5750 5755 5754 5740 5723 5721 5720 5728 5756 5747 5748 5768 5777 5776 5775 5777 5778 5775 5771 5767 5762 5757 5753 5749 5746 5742 5738 5732 5730 5726 5723 5719 5713 5708 5703 5699 5695 5691 5689 5686
5726 5727 5750 5758 5754 5749 5752 5744 5717 5704 5713 5733 5752 5746 5757 5777 5781 5782 5781 5778 5777 5773 5770 5766 5762 5757 5753 5749 5745 5741 5737 5732 5729 5725 5722 5719 5715 5709 5705 5701 5697 5693 5690 5687
5732 5733 5760 5766 5768 5762 5748 5747 5751 5735 5734 5730 5745 5759 5765 5776 5774 5775 5775 5773 5771 5771 5769 5765 5762 5758 5753 5749 5745 5742 5737 5733 5729 5726 5722 5719 5715 5710 5706 5703 5699 5695 5693 5690
5750 5736 5751 5761 5764 5764 5761 5757 5748 5735 5718 5716 5733 5745 5747 5757 5763 5768 5769 5769 5770 5770 5768 5766 5762 5758 5755 5751 5747 5743 5739 5734 5730 5726 5723 5719 5715 5711 5707 5703 5699 5696 5694 5691
5759 5743 5744 5751 5747 5749 5753 5751 5749 5743 5739 5720 5715 5731 5768 5766 5768 5768 5770 5772 5771 5769 5767 5765 5762 5759 5756 5752 5747 5743 5739 5735 5730 5727 5723 5719 5715 5712 5708 5704 5701 5698 5695 5692
5761 5748 5739 5749 5767 5771 5761 5755 5750 5730 5729 5735 5725 5734 5776 5775 5775 5774 5772 5773 5773 5771 5768 5765 5762 5759 5755 5751 5748 5744 5740 5736 5731 5728 5724 5720 5716 5712 5708 5705 5702 5699 5696 5693
5754 5745 5729 5730 5742 5754 5752 5755 5754 5747 5737 5731 5723 5735 5775 5776 5774 5775 5773 5773 5772 5770 5768 5764 5760 5757 5754 5751 5748 5745 5741 5737 5732 5728 5723 5719 5716 5712 5708 5705 5702 5700 5697 5694
5753 5745 5735 5720 5729 5744 5744 5749 5752 5743 5728 5729 5735 5743 5761 5767 5768 5771 5772 5773 5772 5769 5766 5763 5758 5756 5754 5752 5749 5746 5742 5738 5734 5728 5723 5719 5716 5713 5709 5706 5703 5700 5697 5694
5755 5741 5746 5750 5755 5754 5750 5749 5750 5744 5742 5733 5739 5745 5756 5765 5768 5771 5773 5772 5770 5767 5765 5763 5758 5757 5754 5751 5749 5747 5743 5739 5735 5729 5723 5720 5717 5714 5710 5706 5702 5699 5696 5694
5754 5742 5743 5744 5754 5754 5749 5753 5752 5749 5749 5746 5746 5748 5767 5773 5772 5770 5771 5769 5766 5765 5765 5764 5762 5759 5755 5752 5749 5747 5743 5740 5736 5730 5724 5721 5717 5713 5708 5705 5702 5698 5695 5693
5746 5740 5731 5730 5746 5745 5736 5753 5753 5751 5754 5751 5743 5751 5765 5764 5764 5765 5766 5766 5764 5764 5764 5763 5762 5760 5758 5756 5753 5747 5744 5741 5736 5730 5725 5720 5716 5711 5708 5705 5701 5697 5694 5691
5742 5737 5732 5728 5730 5714 5744 5770 5764 5755 5754 5759 5757 5760 5762 5762 5765 5768 5768 5765 5764 5764 5763 5762 5762 5761 5761 5760 5756 5751 5746 5741 5735 5730 5725 5720 5715 5711 5707 5703 5699 5696 5693 5690
5752 5736 5725 5721 5715 5727 5747 5760 5758 5747 5744 5757 5755 5756 5758 5763 5762 5760 5766 5767 5765 5765 5764 5763 5763 5762 5761 5759 5756 5751 5744 5739 5734 5728 5724 5720 5715 5710 5705 5701 5698 5695 5692 5689
5748 5741 5725 5718 5708 5708 5735 5755 5763 5749 5731 5751 5752 5749 5750 5750 5734 5742 5758 5762 5762 5763 5762 5761 5761 5760 5758 5757 5754 5747 5741 5736 5731 5728 5724 5721 5716 5710 5705 5701 5698 5695 5692 5688
5727 5725 5716 5711 5708 5721 5743 5752 5751 5720 5719 5743 5745 5743 5742 5737 5737 5745 5753 5755 5756 5756 5756 5756 5755 5753 5752 5752 5749 5742 5739 5735 5732 5728 5723 5719 5714 5709 5705 5701 5698 5694 5691 5687
5722 5717 5716 5714 5704 5710 5738 5739 5727 5725 5737 5737 5736 5736 5734 5735 5738 5741 5743 5744 5746 5747 5748 5748 5746 5745 5747 5747 5743 5737 5734 5734 5731 5725 5719 5715 5712 5708 5705 5699 5695 5692 5689 5685
5723 5722 5718 5717 5715 5728 5734 5729 5730 5731 5727 5726 5726 5727 5727 5726 5728 5731 5733 5735 5737 5738 5739 5740 5738 5737 5739 5740 5737 5732 5731 5730 5726 5720 5714 5711 5708 5705 5702 5696 5692 5688 5685 5682
5719 5726 5715 5712 5718 5722 5723 5723 5722 5721 5718 5718 5718 5718 5717 5715 5718 5721 5723 5725 5727 5729 5730 5731 5729 5728 5729 5731 5731 5729 5728 5725 5720 5714 5710 5707 5703 5700 5697 5692 5688 5684 5680 5677
5700 5703 5699 5698 5705 5708 5710 5709 5709 5708 5707 5706 5706 5707 5706 5705 5707 5710 5713 5716 5718 5720 5722 5722 5721 5720 5721 5723 5723 5723 5721 5719 5713 5709 5705 5702 5699 5695 5690 5685 5679 5677 5672 5671
5691 5688 5683 5683 5692 5690 5691 5696 5697 5693 5692 5693 5693 5694 5696 5696 5697 5700 5702 5706 5709 5711 5713 5713 5713 5712 5714 5715 5715 5716 5714 5712 5708 5704 5701 5697 5694 5689 5684 5677 5669 5665 5665 5663